This is the latest recevied weather packets stored in our database for station/object KB4JHU-15. If no packets are shown the sender has not sent any weather packets the latest 10 day(s).
| Time | Temp. | Humidity | Pressure | Rain* | Wind** | Luminosity | Snow |
|---|---|---|---|---|---|---|---|
| 1788155622 | 22.78° C | 90% | - | 0 mm | - | - | - |
| 1788153821 | 23.33° C | 89% | - | 0 mm | - | - | - |
| 1788152020 | 23.33° C | 88% | - | 0 mm | - | - | - |
| 1788150219 | 23.89° C | 86% | - | 0 mm | - | - | - |
| 1788148418 | 23.89° C | 85% | - | 0 mm | - | - | - |
| 1788146617 | 24.44° C | 83% | - | 0 mm | - | - | - |
| 1788144816 | 25° C | 81% | - | 0 mm | - | - | - |
| 1788143015 | 25.56° C | 79% | - | 0 mm | - | - | - |
| 1788141214 | 26.11° C | 77% | - | 0 mm | - | - | - |
| 1788139413 | 26.67° C | 74% | - | 0 mm | - | - | - |
| 1788137612 | 27.78° C | 68% | - | 0 mm | - | - | - |
| 1788135811 | 28.89° C | 62% | - | 0 mm | - | - | - |
| 1788134010 | 31.11° C | 54% | - | 0 mm | - | - | - |
| 1788132209 | 32.22° C | 51% | - | 0 mm | - | - | - |
| 1788130408 | 32.78° C | 48% | - | 0 mm | - | - | - |
| 1788128607 | 32.78° C | 48% | - | 0 mm | - | - | - |
| 1788126806 | 32.22° C | 49% | - | 0 mm | - | - | - |
| 1788125005 | 32.78° C | 50% | - | 0 mm | - | - | - |
| 1788123204 | 33.33° C | 47% | - | 0 mm | - | - | - |
| 1788121403 | 32.22° C | 48% | - | 0 mm | - | - | - |
| 1788119602 | 33.33° C | 46% | - | 0 mm | - | - | - |
| 1788117801 | 32.78° C | 49% | - | 0 mm | - | - | - |
| 1788116000 | 32.78° C | 50% | - | 0 mm | - | - | - |
| 1788114199 | 32.78° C | 50% | - | 0 mm | - | - | - |
| 1788112398 | 31.67° C | 54% | - | 0 mm | - | - | - |
* Rain latest hour (hover to see other rain measurements)
** Current wind speed in m/s (hover to see current wind gust speed)